TimeCST,TemperatureF,Dew PointF,Humidity,Sea Level PressureIn,VisibilityMPH,Wind Direction,Wind SpeedMPH,Gust SpeedMPH,PrecipitationIn,Events,Conditions,WindDirDegrees,DateUTC
12:15 AM,19.4,12.7,75,30.09,10.0,SSE,3.5,-,N/A,,Clear,160,2014-03-07 06:15:00
12:35 AM,19.2,12.9,76,30.08,10.0,South,3.5,-,N/A,,Clear,170,2014-03-07 06:35:00
12:55 AM,18.3,12.6,78,30.08,10.0,South,4.6,-,N/A,,Clear,170,2014-03-07 06:55:00
1:15 AM,18.7,13.1,79,30.08,10.0,South,4.6,-,N/A,,Clear,170,2014-03-07 07:15:00
1:35 AM,18.5,12.9,79,30.07,10.0,SSE,4.6,-,N/A,,Clear,160,2014-03-07 07:35:00
1:55 AM,17.2,11.7,79,30.07,10.0,South,3.5,-,N/A,,Clear,170,2014-03-07 07:55:00
2:15 AM,17.2,12.7,83,30.06,10.0,Calm,Calm,-,N/A,,Clear,0,2014-03-07 08:15:00
2:35 AM,16.7,12.7,84,30.05,10.0,South,3.5,-,N/A,,Clear,170,2014-03-07 08:35:00
2:55 AM,15.6,11.7,84,30.04,10.0,Calm,Calm,-,N/A,,Clear,0,2014-03-07 08:55:00
3:15 AM,17.1,13.1,84,30.04,10.0,Calm,Calm,-,N/A,,Clear,0,2014-03-07 09:15:00
3:35 AM,16.5,12.6,84,30.04,10.0,SSW,3.5,-,N/A,,Clear,200,2014-03-07 09:35:00
3:55 AM,15.8,12.2,86,30.03,7.0,South,3.5,-,N/A,,Clear,170,2014-03-07 09:55:00
4:15 AM,15.3,11.7,86,30.03,7.0,SSW,3.5,-,N/A,,Clear,200,2014-03-07 10:15:00
4:35 AM,14.5,10.9,86,30.01,7.0,SSE,4.6,-,N/A,,Clear,160,2014-03-07 10:35:00
4:55 AM,15.3,11.7,86,30.03,7.0,SSW,3.5,-,N/A,,Clear,200,2014-03-07 10:55:00
5:15 AM,15.4,11.7,85,30.03,7.0,SSW,3.5,-,N/A,,Clear,200,2014-03-07 11:15:00
5:35 AM,13.8,10.2,86,30.02,7.0,South,4.6,-,N/A,,Clear,170,2014-03-07 11:35:00
5:55 AM,14.9,11.8,88,30.02,7.0,South,5.8,-,N/A,,Clear,180,2014-03-07 11:55:00
6:15 AM,14.0,10.8,87,30.01,5.0,SSE,3.5,-,N/A,,Clear,150,2014-03-07 12:15:00
6:35 AM,15.4,12.7,89,30.01,4.0,Calm,Calm,-,N/A,,Clear,0,2014-03-07 12:35:00
6:55 AM,16.7,13.6,88,30.01,4.0,Calm,Calm,-,N/A,,Clear,0,2014-03-07 12:55:00
7:15 AM,18.5,14.7,85,30.01,5.0,SSE,3.5,-,N/A,,Clear,150,2014-03-07 13:15:00
7:35 AM,20.1,15.4,82,30.01,5.0,South,4.6,-,N/A,,Haze,170,2014-03-07 13:35:00
8:00 AM,23.2,18.0,80,30.02,5.0,SSW,3.5,-,N/A,,Haze,200,2014-03-07 14:00:00
8:15 AM,24.3,18.1,77,30.01,5.0,SW,3.5,-,N/A,,Haze,230,2014-03-07 14:15:00
8:35 AM,27.0,20.1,75,30.01,5.0,SW,4.6,-,N/A,,Haze,220,2014-03-07 14:35:00
8:55 AM,29.3,21.2,72,30.00,7.0,SSW,3.5,-,N/A,,Clear,200,2014-03-07 14:55:00
9:15 AM,30.9,21.9,69,30.01,7.0,SW,5.8,-,N/A,,Clear,220,2014-03-07 15:15:00
9:35 AM,32.5,22.5,66,30.01,10.0,SSW,8.1,-,N/A,,Clear,200,2014-03-07 15:35:00
9:55 AM,33.8,22.1,62,30.01,10.0,SSW,8.1,-,N/A,,Clear,210,2014-03-07 15:55:00
10:15 AM,34.9,22.6,61,29.99,10.0,South,8.1,-,N/A,,Clear,190,2014-03-07 16:15:00
10:35 AM,35.8,22.3,58,29.99,10.0,SSW,9.2,-,N/A,,Clear,200,2014-03-07 16:35:00
10:55 AM,36.5,22.6,57,29.99,10.0,SSW,9.2,-,N/A,,Clear,200,2014-03-07 16:55:00
11:15 AM,37.8,23.5,57,29.99,10.0,West,8.1,-,N/A,,Clear,260,2014-03-07 17:15:00
11:35 AM,39.2,23.9,54,29.99,10.0,SW,11.5,-,N/A,,Clear,220,2014-03-07 17:35:00
11:55 AM,39.9,23.9,53,29.97,10.0,SSW,10.4,-,N/A,,Clear,200,2014-03-07 17:55:00
12:15 PM,40.6,23.7,51,29.97,10.0,SSW,10.4,-,N/A,,Clear,210,2014-03-07 18:15:00
12:40 PM,40.6,24.8,53,29.95,10.0,SSW,13.8,-,N/A,,Clear,200,2014-03-07 18:40:00
12:55 PM,40.8,24.3,52,29.95,10.0,SSW,13.8,-,N/A,,Clear,210,2014-03-07 18:55:00
1:15 PM,42.1,24.1,49,29.94,10.0,SSW,10.4,16.1,N/A,,Clear,200,2014-03-07 19:15:00
1:35 PM,42.1,24.4,50,29.94,10.0,SW,12.7,-,N/A,,Clear,220,2014-03-07 19:35:00
1:55 PM,42.8,25.5,51,29.93,10.0,SSW,12.7,-,N/A,,Clear,200,2014-03-07 19:55:00
2:15 PM,43.5,26.6,51,29.91,10.0,SSW,9.2,-,N/A,,Clear,200,2014-03-07 20:15:00
2:35 PM,43.7,27.1,52,29.91,10.0,South,13.8,-,N/A,,Clear,190,2014-03-07 20:35:00
2:55 PM,42.3,26.4,54,29.90,10.0,SSW,11.5,-,N/A,,Clear,200,2014-03-07 20:55:00
3:15 PM,43.5,27.7,54,29.91,10.0,SSW,10.4,-,N/A,,Clear,200,2014-03-07 21:15:00
3:35 PM,42.3,26.8,54,29.90,10.0,SSW,13.8,-,N/A,,Scattered Clouds,200,2014-03-07 21:35:00
3:55 PM,42.4,28.2,57,29.89,10.0,SSW,10.4,-,N/A,,Scattered Clouds,200,2014-03-07 21:55:00
4:15 PM,42.8,28.8,58,29.90,10.0,SSW,10.4,-,N/A,,Scattered Clouds,210,2014-03-07 22:15:00
4:35 PM,42.3,29.3,60,29.90,10.0,SSW,9.2,-,N/A,,Scattered Clouds,210,2014-03-07 22:35:00
4:55 PM,41.5,29.8,63,29.90,10.0,SSW,9.2,-,N/A,,Clear,210,2014-03-07 22:55:00
5:15 PM,40.8,30.0,65,29.91,10.0,SW,8.1,-,N/A,,Clear,220,2014-03-07 23:15:00
5:35 PM,39.9,30.7,70,29.91,10.0,SW,6.9,-,N/A,,Clear,220,2014-03-07 23:35:00
5:55 PM,39.4,30.9,72,29.91,10.0,SW,5.8,-,N/A,,Clear,220,2014-03-07 23:55:00
6:15 PM,38.5,30.9,74,29.92,10.0,SW,5.8,-,N/A,,Clear,220,2014-03-08 00:15:00
6:35 PM,37.6,30.9,77,29.91,10.0,South,6.9,-,N/A,,Scattered Clouds,170,2014-03-08 00:35:00
6:55 PM,38.1,30.6,74,29.92,10.0,SW,5.8,-,N/A,,Clear,220,2014-03-08 00:55:00
7:15 PM,38.5,30.9,74,29.92,10.0,SW,5.8,-,N/A,,Mostly Cloudy,230,2014-03-08 01:15:00
7:35 PM,38.5,30.9,74,29.93,10.0,SW,5.8,-,N/A,,Overcast,220,2014-03-08 01:35:00
7:55 PM,39.2,31.1,73,29.94,10.0,SW,4.6,-,N/A,,Mostly Cloudy,220,2014-03-08 01:55:00
8:15 PM,39.4,31.1,72,29.94,10.0,Calm,Calm,-,N/A,,Mostly Cloudy,0,2014-03-08 02:15:00
8:35 PM,38.5,31.1,75,29.94,10.0,SW,3.5,-,N/A,,Mostly Cloudy,220,2014-03-08 02:35:00
8:55 PM,38.1,31.3,76,29.95,10.0,SW,4.6,-,N/A,,Mostly Cloudy,230,2014-03-08 02:55:00
9:15 PM,38.3,31.5,76,29.96,10.0,NW,4.6,-,N/A,,Overcast,310,2014-03-08 03:15:00
9:35 PM,39.4,31.5,73,29.96,10.0,WNW,3.5,-,N/A,,Overcast,290,2014-03-08 03:35:00
9:55 PM,37.6,31.1,77,29.96,10.0,West,3.5,-,N/A,,Mostly Cloudy,270,2014-03-08 03:55:00
10:15 PM,36.5,31.1,81,29.96,7.0,Calm,Calm,-,N/A,,Clear,0,2014-03-08 04:15:00
10:35 PM,35.8,30.9,82,29.96,7.0,Calm,Calm,-,N/A,,Scattered Clouds,0,2014-03-08 04:35:00
10:55 PM,36.1,31.1,82,29.96,7.0,NW,3.5,-,N/A,Rain,Light Rain,310,2014-03-08 04:55:00
11:15 PM,37.6,32.0,80,29.96,7.0,Calm,Calm,-,N/A,,Overcast,0,2014-03-08 05:15:00
11:35 PM,34.7,31.1,87,29.96,7.0,Calm,Calm,-,N/A,,Mostly Cloudy,0,2014-03-08 05:35:00
11:55 PM,33.8,31.1,90,29.96,5.0,Calm,Calm,-,N/A,,Scattered Clouds,0,2014-03-08 05:55:00